Weather History for KBGM - August, 2013

Change the Weather History Date:

Friday, August 2, 2013

  Actual Average Record
Temperature  
Mean Temperature 66 °F 69 °F  
Max Temperature 73 °F 78 °F 91 °F (2002)
Min Temperature 59 °F 60 °F 47 °F (1976)
Degree Days  
Heating Degree Days 0 1  
Month to date heating degree days 0 2  
Since 1 June heating degree days 101 117  
Since 1 July heating degree days 14 26  
Cooling Degree Days 1 4  
Month to date cooling degree days 4 8  
Year to date cooling degree days 350 243  
Since 1 June cooling degree days 307 220  
Growing Degree Days 16 (Base 50)    
Moisture  
Dew Point 58 °F    
Average Humidity 77    
Maximum Humidity 97    
Minimum Humidity 57    
Precipitation  
Precipitation 0.18 in 0.12 in 1.18 in (1961)
Month to date precipitation 0.38 0.24  
Year to date precipitation 25.30 23.00  
Snow  
Snow 0.00 in 0.00 in 0.00 in (2002)
Month to date snowfall 0.0 0.0  
Since 1 June snowfall 0.0 0.0  
Since 1 July snowfall 0.0 0.0  
Snow Depth 0.00 in    
Sea Level Pressure  
Sea Level Pressure 29.90 in    
Wind  
Wind Speed 5 mph (WSW)    
Max Wind Speed 20 mph    
Max Gust Speed 29 mph    
Visibility 5 miles    
Events Fog , Rain , Thunderstorm    
T = Trace of Precipitation, MM = Missing Value Source: NWS Daily Summary

Daily Weather History Graph

Daily Weather History Graph

Search for Another Location

Airport or City:

Trip Planner

Search our weather history database for the weather conditions in past years. The results will help you decide how hot, cold, wet, or windy it might be!

Date:

Astronomy

Aug. 02, 2013 Rise Set
Actual Time 5:58 AM EDT 8:21 PM EDT
Civil Twilight 5:26 AM EDT 8:53 PM EDT
Nautical Twilight 4:47 AM EDT 9:31 PM EDT
Astronomical Twilight 4:03 AM EDT 10:15 PM EDT
Moon 2:16 AM EDT (8/2) 5:18 PM EDT (8/2)
Length of Visible Light 15h 26m
Length of Day
14h 23m
Waning Crescent, 16% of the Moon is Illuminated
Aug 2
Waning Crescent
Aug 6
New
Aug 14
First Quarter
Aug 20
Full
Aug 28
Last Quarter

Hourly Weather History & Observations

Time (EDT) Temp. Dew Point Humidity Pressure Visibility Wind Dir Wind Speed Gust Speed Precip Events Conditions
12:53 AM 61.0 °F 59.0 °F 93% 29.89 in 0.2 mi Calm Calm - N/A Fog Fog
1:12 AM 60.8 °F 59.0 °F 94% 29.90 in 1.0 mi West 3.5 mph - N/A   Mist
1:14 AM 60.8 °F 59.0 °F 94% 29.90 in 0.8 mi West 3.5 mph - N/A   Mist
1:21 AM 60.8 °F 57.2 °F 88% 29.90 in 0.2 mi West 3.5 mph - N/A Fog Fog
1:31 AM 60.8 °F 59.0 °F 94% 29.90 in 0.2 mi WSW 5.8 mph - N/A Fog Fog
1:53 AM 60.1 °F 59.0 °F 96% 29.88 in 0.2 mi West 3.5 mph - N/A Fog Fog
2:53 AM 60.1 °F 59.0 °F 96% 29.86 in 0.2 mi West 3.5 mph - N/A Fog Fog
3:53 AM 60.1 °F 59.0 °F 96% 29.86 in 0.2 mi WSW 5.8 mph - N/A Fog Fog
4:36 AM 60.8 °F 59.0 °F 94% 29.89 in 0.2 mi West 5.8 mph - N/A Fog Fog
4:53 AM 60.1 °F 59.0 °F 96% 29.87 in 0.2 mi West 4.6 mph - N/A Fog Fog
5:00 AM 60.8 °F 59.0 °F 94% 29.89 in 0.5 mi WNW 5.8 mph - N/A Fog Fog
5:35 AM 59.0 °F 57.2 °F 94% 29.90 in 0.2 mi West 4.6 mph - N/A Fog Fog
5:53 AM 59.0 °F 57.9 °F 96% 29.88 in 0.2 mi WSW 4.6 mph - N/A Fog Fog
6:53 AM 59.0 °F 57.9 °F 96% 29.90 in 0.2 mi WSW 3.5 mph - N/A Fog Fog
7:53 AM 60.1 °F 59.0 °F 96% 29.92 in 0.2 mi WSW 5.8 mph - N/A Fog Fog
8:05 AM 60.8 °F 59.0 °F 94% 29.94 in 0.2 mi WSW 5.8 mph - N/A Fog Fog
8:22 AM 60.8 °F 59.0 °F 94% 29.94 in 1.0 mi West 6.9 mph - N/A   Overcast
8:53 AM 61.0 °F 59.0 °F 93% 29.93 in 3.0 mi West 5.8 mph - N/A   Overcast
9:53 AM 64.0 °F 59.0 °F 84% 29.94 in 10.0 mi Variable 3.5 mph - N/A   Mostly Cloudy
10:03 AM 64.4 °F 59.0 °F 83% 29.96 in 10.0 mi West 6.9 mph - N/A   Scattered Clouds
10:53 AM 66.9 °F 57.9 °F 73% 29.93 in 10.0 mi WSW 5.8 mph - N/A   Scattered Clouds
11:53 AM 68.0 °F 55.9 °F 65% 29.92 in 10.0 mi Variable 6.9 mph - N/A   Mostly Cloudy
12:53 PM 72.0 °F 57.0 °F 59% 29.91 in 10.0 mi WSW 9.2 mph 16.1 mph N/A   Mostly Cloudy
1:53 PM 69.1 °F 54.0 °F 58% 29.90 in 10.0 mi Calm Calm - N/A   Overcast
2:53 PM 72.0 °F 55.0 °F 55% 29.88 in 10.0 mi NE 4.6 mph - 0.00 in   Scattered Clouds
3:42 PM 69.8 °F 60.8 °F 73% 29.90 in 10.0 mi Variable 3.5 mph - 0.01 in Rain , Thunderstorm Light Rain
3:53 PM 69.1 °F 55.9 °F 63% 29.89 in 10.0 mi Calm Calm - 0.01 in Thunderstorm Mostly Cloudy
4:16 PM 60.8 °F 55.4 °F 82% 29.91 in 6.0 mi North 17.3 mph 21.9 mph 0.02 in Rain Rain
4:25 PM 59.0 °F 55.4 °F 88% 29.92 in 1.5 mi Variable 4.6 mph - 0.09 in Rain Heavy Rain
4:36 PM 60.8 °F 57.2 °F 88% 29.92 in 5.0 mi NNW 6.9 mph - 0.17 in Rain Light Rain
4:53 PM 63.0 °F 57.9 °F 84% 29.90 in 10.0 mi North 9.2 mph - 0.17 in   Mostly Cloudy
5:53 PM 64.0 °F 60.1 °F 87% 29.89 in 10.0 mi ENE 5.8 mph - N/A   Mostly Cloudy
6:53 PM 64.0 °F 57.9 °F 80% 29.90 in 10.0 mi East 4.6 mph - N/A   Mostly Cloudy
7:53 PM 63.0 °F 59.0 °F 87% 29.90 in 10.0 mi SSE 5.8 mph - N/A   Mostly Cloudy
8:53 PM 61.0 °F 57.0 °F 87% 29.91 in 10.0 mi South 3.5 mph - N/A   Clear
9:53 PM 62.1 °F 55.9 °F 80% 29.92 in 10.0 mi South 3.5 mph - N/A   Scattered Clouds
10:53 PM 60.1 °F 55.9 °F 86% 29.91 in 10.0 mi South 4.6 mph - N/A   Partly Cloudy
11:53 PM 62.1 °F 55.0 °F 78% 29.90 in 10.0 mi SW 8.1 mph - N/A   Scattered Clouds